When you browse on this site, cookies collect data to enhance your experience and personalize the content and advertising you see.
Visit our Privacy Policy to learn more. By continuing to use the site, you agree to this use of cookies and data.
  • în România
  • Lista ţărilor
  • Pe 7 zile
  • Temperatura apei
  • Meteo pe hartă
  • Widget-uri
  • user-avatar
    Intrare

    Meteo pe oră la Poplyahny

    Astăzi, 19 Septembrie, Joi

    Timp Temperatura Precipitaţii Vânt Presiune Umiditate
    00:00 +6°C° 0 mm 2 m/s 747 mmHg 98%
    01:00 +5°C° 0 mm 2 m/s 747 mmHg 98%
    02:00 +5°C° 0 mm 2 m/s 748 mmHg 99%
    03:00 +5°C° 0 mm 2 m/s 748 mmHg 98%
    04:00 +4°C° 0 mm 2 m/s 748 mmHg 97%
    05:00 +4°C° 0 mm 2 m/s 749 mmHg 97%
    06:00 +4°C° 0 mm 2 m/s 749 mmHg 95%
    07:00 +5°C° 0 mm 2 m/s 750 mmHg 93%
    08:00 +5°C° 0 mm 2 m/s 750 mmHg 92%
    09:00 +6°C° 0 mm 2 m/s 750 mmHg 86%
    10:00 +7°C° 0 mm 2 m/s 751 mmHg 80%
    11:00 +10°C° 0 mm 1 m/s 751 mmHg 74%
    12:00 +9°C° 0.1 mm 2 m/s 751 mmHg 73%
    13:00 +9°C° 0.1 mm 2 m/s 751 mmHg 72%
    14:00 +9°C° 0.1 mm 2 m/s 751 mmHg 72%
    15:00 +9°C° 0.1 mm 2 m/s 751 mmHg 75%
    16:00 +8°C° 0.1 mm 2 m/s 752 mmHg 79%
    17:00 +8°C° 0.1 mm 2 m/s 752 mmHg 82%
    18:00 +7°C° 0 mm 1 m/s 752 mmHg 86%
    19:00 +6°C° 0 mm 1 m/s 752 mmHg 89%
    20:00 +5°C° 0 mm 1 m/s 752 mmHg 92%
    21:00 +4°C° 0 mm 1 m/s 752 mmHg 93%
    22:00 +4°C° 0 mm 1 m/s 752 mmHg 94%
    23:00 +4°C° 0 mm 1 m/s 752 mmHg 94%

    Mâine, 20 Septembrie, Vineri

    Timp Temperatura Precipitaţii Vânt Presiune Umiditate
    00:00 +3°C° 0 mm 1 m/s 752 mmHg 94%
    01:00 +3°C° 0 mm 1 m/s 752 mmHg 95%
    02:00 +2°C° 0 mm 1 m/s 753 mmHg 95%
    03:00 +2°C° 0 mm 1 m/s 752 mmHg 95%
    04:00 +2°C° 0 mm 1 m/s 752 mmHg 95%
    05:00 +2°C° 0 mm 1 m/s 752 mmHg 95%
    06:00 +3°C° 0 mm 1 m/s 752 mmHg 92%
    07:00 +4°C° 0 mm 1 m/s 752 mmHg 89%
    08:00 +5°C° 0 mm 2 m/s 752 mmHg 86%
    09:00 +5°C° 0.1 mm 2 m/s 753 mmHg 84%
    10:00 +5°C° 0.1 mm 3 m/s 753 mmHg 81%
    11:00 +7°C° 0.1 mm 3 m/s 753 mmHg 78%
    12:00 +8°C° 0.1 mm 3 m/s 753 mmHg 73%
    13:00 +7°C° 0.1 mm 4 m/s 753 mmHg 68%
    14:00 +8°C° 0.1 mm 4 m/s 753 mmHg 63%
    15:00 +8°C° 0 mm 3 m/s 753 mmHg 66%
    16:00 +8°C° 0 mm 2 m/s 753 mmHg 68%
    17:00 +7°C° 0 mm 2 m/s 753 mmHg 70%
    18:00 +6°C° 0 mm 2 m/s 753 mmHg 76%
    19:00 +4°C° 0 mm 2 m/s 754 mmHg 82%
    20:00 +3°C° 0 mm 2 m/s 754 mmHg 88%
    21:00 +3°C° 0 mm 1 m/s 754 mmHg 88%
    22:00 +3°C° 0 mm 1 m/s 754 mmHg 89%
    23:00 +2°C° 0 mm 1 m/s 754 mmHg 89%

    Poimâine, 21 Septembrie, Sâmbătă

    Timp Temperatura Precipitaţii Vânt Presiune Umiditate
    00:00 +2°C° 0 mm 1 m/s 754 mmHg 88%
    01:00 +2°C° 0 mm 1 m/s 754 mmHg 88%
    02:00 +1°C° 0 mm 2 m/s 754 mmHg 87%
    03:00 +2°C° 0 mm 2 m/s 753 mmHg 87%
    04:00 +3°C° 0 mm 2 m/s 753 mmHg 86%
    05:00 +3°C° 0 mm 2 m/s 753 mmHg 86%
    06:00 +4°C° 0.2 mm 2 m/s 752 mmHg 87%
    07:00 +4°C° 0.2 mm 2 m/s 752 mmHg 87%
    08:00 +3°C° 0.2 mm 3 m/s 751 mmHg 88%
    09:00 +4°C° 0 mm 3 m/s 751 mmHg 86%
    10:00 +5°C° 0 mm 3 m/s 751 mmHg 85%
    11:00 +7°C° 0 mm 2 m/s 750 mmHg 83%
    12:00 +7°C° 0.1 mm 2 m/s 750 mmHg 87%
    13:00 +6°C° 0.1 mm 2 m/s 750 mmHg 90%
    14:00 +6°C° 0.1 mm 2 m/s 749 mmHg 94%
    15:00 +6°C° 0.1 mm 2 m/s 749 mmHg 94%
    16:00 +6°C° 0.1 mm 2 m/s 748 mmHg 95%
    17:00 +7°C° 0.1 mm 1 m/s 748 mmHg 96%
    18:00 +7°C° 0 mm 1 m/s 748 mmHg 97%
    19:00 +7°C° 0 mm 1 m/s 748 mmHg 97%
    20:00 +7°C° 0 mm 1 m/s 747 mmHg 98%
    21:00 +6°C° 0 mm 1 m/s 747 mmHg 98%
    22:00 +6°C° 0 mm 1 m/s 747 mmHg 98%
    23:00 +6°C° 0 mm 1 m/s 746 mmHg 98%

    22 Septembrie, Duminică

    Timp Temperatura Precipitaţii Vânt Presiune Umiditate
    00:00 +7°C° 0.2 mm 1 m/s 746 mmHg 98%
    01:00 +7°C° 0.2 mm 1 m/s 746 mmHg 98%
    02:00 +6°C° 0.2 mm 2 m/s 746 mmHg 98%
    03:00 +7°C° 0.1 mm 3 m/s 746 mmHg 97%
    04:00 +7°C° 0.1 mm 3 m/s 746 mmHg 95%
    05:00 +6°C° 0.1 mm 4 m/s 746 mmHg 94%
    06:00 +5°C° 0.4 mm 4 m/s 747 mmHg 91%
    07:00 +5°C° 0.4 mm 5 m/s 747 mmHg 89%
    08:00 +3°C° 0.4 mm 5 m/s 748 mmHg 87%
    09:00 +5°C° 0.1 mm 5 m/s 749 mmHg 80%
    10:00 +6°C° 0.1 mm 5 m/s 750 mmHg 74%
    11:00 +7°C° 0.1 mm 5 m/s 751 mmHg 68%
    12:00 +7°C° 0.1 mm 5 m/s 751 mmHg 63%
    13:00 +8°C° 0.1 mm 6 m/s 752 mmHg 59%
    14:00 +8°C° 0.1 mm 6 m/s 752 mmHg 54%
    15:00 +7°C° 0 mm 5 m/s 753 mmHg 57%
    16:00 +7°C° 0 mm 4 m/s 753 mmHg 60%
    17:00 +7°C° 0 mm 3 m/s 753 mmHg 63%
    18:00 +5°C° 0 mm 2 m/s 754 mmHg 68%
    19:00 +4°C° 0 mm 2 m/s 755 mmHg 74%
    20:00 +3°C° 0 mm 2 m/s 755 mmHg 79%
    21:00 +2°C° 0 mm 2 m/s 755 mmHg 82%
    22:00 +2°C° 0 mm 2 m/s 756 mmHg 85%
    23:00 +1°C° 0 mm 2 m/s 756 mmHg 88%

    23 Septembrie, Luni

    Timp Temperatura Precipitaţii Vânt Presiune Umiditate
    00:00 +1°C° 0 mm 2 m/s 756 mmHg 89%
    01:00 +1°C° 0 mm 2 m/s 756 mmHg 90%
    02:00 +1°C° 0 mm 2 m/s 756 mmHg 90%
    03:00 +1°C° 0 mm 2 m/s 757 mmHg 90%
    04:00 +1°C° 0 mm 2 m/s 757 mmHg 89%
    05:00 +1°C° 0 mm 2 m/s 757 mmHg 89%
    06:00 +2°C° 0 mm 2 m/s 757 mmHg 84%
    07:00 +3°C° 0 mm 2 m/s 757 mmHg 80%
    08:00 +4°C° 0 mm 2 m/s 757 mmHg 75%
    09:00 +5°C° 0 mm 2 m/s 757 mmHg 69%
    10:00 +6°C° 0 mm 2 m/s 757 mmHg 63%
    11:00 +8°C° 0 mm 2 m/s 756 mmHg 57%
    12:00 +8°C° 0 mm 2 m/s 756 mmHg 57%
    13:00 +8°C° 0 mm 2 m/s 756 mmHg 58%
    14:00 +8°C° 0 mm 2 m/s 755 mmHg 58%
    15:00 +8°C° 0 mm 2 m/s 755 mmHg 63%
    16:00 +8°C° 0 mm 1 m/s 755 mmHg 68%
    17:00 +8°C° 0 mm 1 m/s 755 mmHg 73%
    18:00 +7°C° 0 mm 1 m/s 755 mmHg 75%
    19:00 +6°C° 0 mm 1 m/s 755 mmHg 77%
    20:00 +6°C° 0 mm 1 m/s 755 mmHg 80%
    21:00 +5°C° 0 mm 1 m/s 755 mmHg 82%
    22:00 +5°C° 0 mm 1 m/s 755 mmHg 83%
    23:00 +3°C° 0 mm 0 m/s 755 mmHg 85%

    24 Septembrie, Marţi

    Timp Temperatura Precipitaţii Vânt Presiune Umiditate
    00:00 +3°C° 0 mm 0 m/s 755 mmHg 86%
    01:00 +3°C° 0 mm 0 m/s 755 mmHg 86%
    02:00 +3°C° 0 mm 0 m/s 755 mmHg 86%
    03:00 +2°C° 0 mm 0 m/s 754 mmHg 88%
    04:00 +2°C° 0 mm 1 m/s 754 mmHg 89%
    05:00 +2°C° 0 mm 1 m/s 754 mmHg 91%
    06:00 +3°C° 0 mm 1 m/s 754 mmHg 84%
    07:00 +4°C° 0 mm 1 m/s 754 mmHg 78%
    08:00 +5°C° 0 mm 1 m/s 754 mmHg 71%
    09:00 +6°C° 0 mm 1 m/s 754 mmHg 64%
    10:00 +7°C° 0 mm 2 m/s 754 mmHg 57%
    11:00 +8°C° 0 mm 2 m/s 754 mmHg 49%
    12:00 +8°C° 0 mm 2 m/s 754 mmHg 48%
    13:00 +9°C° 0 mm 2 m/s 754 mmHg 47%
    14:00 +9°C° 0 mm 2 m/s 754 mmHg 46%
    15:00 +8°C° 0 mm 2 m/s 754 mmHg 52%
    16:00 +8°C° 0 mm 1 m/s 754 mmHg 58%
    17:00 +7°C° 0 mm 1 m/s 754 mmHg 64%
    18:00 +6°C° 0 mm 1 m/s 754 mmHg 70%
    19:00 +4°C° 0 mm 1 m/s 754 mmHg 76%
    20:00 +3°C° 0 mm 1 m/s 754 mmHg 82%
    21:00 +3°C° 0 mm 1 m/s 754 mmHg 84%
    22:00 +2°C° 0 mm 1 m/s 754 mmHg 87%
    23:00 +2°C° 0 mm 1 m/s 754 mmHg 89%
    Arată mai mult